NORTHEAST SUFFOLK  -  Air Quality Alert Air Quality Alert        NORTHERN NASSAU  -  Air Quality Alert Air Quality Alert        NORTHERN QUEENS  -  Air Quality Alert Air Quality Alert        NORTHWEST SUFFOLK  -  Air Quality Alert Air Quality Alert        SOUTHEAST SUFFOLK  -  Air Quality Alert Air Quality Alert        SOUTHERN NASSAU  -  Air Quality Alert Air Quality Alert        SOUTHERN QUEENS  -  Air Quality Alert Air Quality Alert        SOUTHWEST SUFFOLK  -  Air Quality Alert Air Quality Alert      

Active alerts

Northern Queens
  Details for Northern Queens Air Quality Alert
Southern Queens
  Details for Southern Queens Air Quality Alert
Northern Nassau
  Details for Northern Nassau Air Quality Alert
Southern Nassau
  Details for Southern Nassau Air Quality Alert
Northwest Suffolk
  Details for Northwest Suffolk Air Quality Alert
Southwest Suffolk
  Details for Southwest Suffolk Air Quality Alert
Northeast Suffolk
  Details for Northeast Suffolk Air Quality Alert
Southeast Suffolk
  Details for Southeast Suffolk Air Quality Alert


WXM80 ListenWXM80 Stop

You find our weather info also at:

UK Metoffice

WeatherCloud

Weather Underground

Northeastern Weather Network

AWEKAS

Citizen Weather Observer Program (CWOP)

HAMweather, WeatherForYou, PWS Weather


Weather Underground History page Text

Daily Summary for July 31, 2017 Units:  Metric    English   Both
« Previous Day
Next Day »
Daily Weekly Monthly Yearly Custom
  High: Low: Average:
Temperature: 33.1 °C 16.7 °C 24.6 °C
Dew Point: 19.5 °C 13.4 °C 16.9 °C
Humidity: 85 % 40 % 65 %
Wind Speed: 5 km/h 0 km/h 1.1 km/h
Wind Gust: 13 km/h - -
Wind:- - SSW
Pressure: 1016.8 hPa 1014.1 hPa -
Precipitation: 0 mm    
Historical Graphs
 
 
Tabular Data for July 31, 2017
Time Temperature Dew Point Pressure Wind Wind Speed Wind Gust Humidity Rainfall Rate (Hourly)
00:02 19.5 °C 14.7 °C 1016.1 hPa Calm     74 % 0 mm
00:07 19.5 °C 14.7 °C 1016.1 hPa WSW 2.6 km/h 5.6 km/h 74 % 0 mm
00:13 19.5 °C 14.7 °C 1016.1 hPa WSW 0.8 km/h 4.8 km/h 74 % 0 mm
00:18 19.5 °C 14.7 °C 1016.1 hPa SW 1 km/h 3.7 km/h 74 % 0 mm
00:23 19.4 °C 14.7 °C 1016.1 hPa WSW 1.3 km/h 5.6 km/h 74 % 0 mm
00:28 19.5 °C 14.9 °C 1016.1 hPa SW 2.1 km/h 5.6 km/h 75 % 0 mm
00:33 19.4 °C 14.9 °C 1016.1 hPa SW 0.5 km/h 3.7 km/h 75 % 0 mm
00:38 19.4 °C 15.1 °C 1016.1 hPa WSW 1 km/h 3.7 km/h 76 % 0 mm
00:43 19.4 °C 15.1 °C 1016.1 hPa WSW 0.2 km/h 1.6 km/h 76 % 0 mm
00:48 19.4 °C 15.1 °C 1016.1 hPa WSW 1 km/h 3.7 km/h 76 % 0 mm
00:53 19.4 °C 15.1 °C 1016.1 hPa WSW 0.6 km/h 1.9 km/h 76 % 0 mm
00:58 19.4 °C 15.1 °C 1016.1 hPa WSW 0.5 km/h 5.6 km/h 76 % 0 mm
01:03 19.4 °C 15.3 °C 1016.1 hPa West 2.9 km/h 6.4 km/h 77 % 0 mm
01:08 19.4 °C 15.3 °C 1016.1 hPa WSW 2.1 km/h 7.4 km/h 77 % 0 mm
01:13 19.4 °C 15.3 °C 1016.1 hPa SW 2.6 km/h 5.6 km/h 77 % 0 mm
01:18 19.4 °C 15.3 °C 1016.1 hPa WSW 2.4 km/h 7.4 km/h 77 % 0 mm
01:23 19.4 °C 15.3 °C 1016.1 hPa WSW 0.6 km/h 3.7 km/h 77 % 0 mm
01:28 19.4 °C 15.3 °C 1016.1 hPa Calm   1.9 km/h 77 % 0 mm
01:33 19.3 °C 15.2 °C 1016.1 hPa Calm   3.7 km/h 77 % 0 mm
01:38 19.3 °C 15.2 °C 1016.1 hPa WSW 1.1 km/h 5.6 km/h 77 % 0 mm
01:44 19.3 °C 15.3 °C 1015.8 hPa WSW 0.5 km/h 5.6 km/h 78 % 0 mm
01:48 19.2 °C 15.3 °C 1015.8 hPa WSW 0.5 km/h 5.6 km/h 78 % 0 mm
01:54 19.2 °C 15.1 °C 1015.8 hPa WSW 0.2 km/h 3.7 km/h 77 % 0 mm
01:58 19.1 °C 15.2 °C 1015.8 hPa WSW 0.3 km/h 1.9 km/h 78 % 0 mm
02:04 19.1 °C 15.1 °C 1015.8 hPa WSW 0.6 km/h 5.6 km/h 78 % 0 mm
02:09 19 °C 15.1 °C 1015.8 hPa WSW 3.1 km/h 5.6 km/h 78 % 0 mm
02:14 18.9 °C 15 °C 1015.8 hPa WSW 2.1 km/h 7.4 km/h 78 % 0 mm
02:19 18.9 °C 14.9 °C 1015.8 hPa WSW 1.8 km/h 3.7 km/h 78 % 0 mm
02:24 18.8 °C 14.9 °C 1015.8 hPa SW 0.2 km/h 1.9 km/h 78 % 0 mm
02:29 18.8 °C 14.9 °C 1015.8 hPa SW 2.3 km/h 5.6 km/h 78 % 0 mm
02:34 18.8 °C 14.8 °C 1015.8 hPa SW 2.3 km/h 3.7 km/h 78 % 0 mm
02:39 18.7 °C 14.8 °C 1015.8 hPa Calm   1.9 km/h 78 % 0 mm
02:44 18.7 °C 14.8 °C 1015.8 hPa WSW 1.1 km/h 8 km/h 78 % 0 mm
02:49 18.7 °C 14.8 °C 1015.8 hPa SW 2.9 km/h 5.6 km/h 78 % 0 mm
02:54 18.6 °C 14.7 °C 1015.8 hPa WSW 3.1 km/h 5.6 km/h 78 % 0 mm
02:59 18.6 °C 14.7 °C 1016.1 hPa WSW 2.6 km/h 5.6 km/h 78 % 0 mm
03:04 18.5 °C 14.6 °C 1016.1 hPa Calm   1.9 km/h 78 % 0 mm
03:09 18.5 °C 14.6 °C 1016.1 hPa Calm   1.9 km/h 78 % 0 mm
03:14 18.4 °C 14.6 °C 1015.8 hPa WSW 2.4 km/h 5.6 km/h 78 % 0 mm
03:19 18.4 °C 14.6 °C 1015.8 hPa WSW 2.3 km/h 3.7 km/h 78 % 0 mm
03:24 18.4 °C 14.3 °C 1015.8 hPa SW 2.6 km/h 5.6 km/h 77 % 0 mm
03:25 18.4 °C 14.3 °C 1015.8 hPa SW 1.3 km/h 5.6 km/h 77 % 0 mm
03:30 18.3 °C 14.2 °C 1015.8 hPa WSW 1.9 km/h 3.2 km/h 77 % 0 mm
03:35 18.3 °C 14.2 °C 1015.8 hPa WSW 2.1 km/h 4.8 km/h 77 % 0 mm
03:40 18.3 °C 14.2 °C 1015.8 hPa WSW 0.5 km/h 3.7 km/h 77 % 0 mm
03:45 18.3 °C 14.2 °C 1015.8 hPa Calm     77 % 0 mm
03:50 18.3 °C 14 °C 1015.8 hPa WSW 0.2 km/h   76 % 0 mm
03:55 18.2 °C 13.9 °C 1015.8 hPa WSW 1.6 km/h 5.6 km/h 76 % 0 mm
04:00 18.2 °C 13.9 °C 1015.8 hPa WSW 0.6 km/h 3.7 km/h 76 % 0 mm
04:05 18.2 °C 13.9 °C 1015.8 hPa WSW 1.1 km/h 3.7 km/h 76 % 0 mm
04:10 18.1 °C 14 °C 1015.8 hPa Calm   1.9 km/h 77 % 0 mm
04:15 18.1 °C 14 °C 1015.8 hPa SW 2.9 km/h 6.4 km/h 77 % 0 mm
04:20 18.1 °C 13.8 °C 1015.8 hPa West 3.5 km/h 3.7 km/h 76 % 0 mm
04:26 18 °C 13.7 °C 1015.8 hPa Calm   6.4 km/h 76 % 0 mm
04:31 17.9 °C 13.7 °C 1015.8 hPa SW 0.3 km/h 1.9 km/h 76 % 0 mm
04:36 17.9 °C 13.7 °C 1015.8 hPa Calm   1.6 km/h 76 % 0 mm
04:41 17.9 °C 13.8 °C 1015.8 hPa Calm   3.2 km/h 77 % 0 mm
04:46 17.8 °C 13.7 °C 1015.8 hPa Calm   1.6 km/h 77 % 0 mm
04:51 17.8 °C 13.7 °C 1015.8 hPa Calm   3.2 km/h 77 % 0 mm
04:56 17.7 °C 13.6 °C 1015.8 hPa SW 1.6 km/h 4.8 km/h 77 % 0 mm
05:01 17.6 °C 13.6 °C 1015.8 hPa SW 0.8 km/h 3.7 km/h 77 % 0 mm
05:06 17.6 °C 13.7 °C 1015.8 hPa SW 0.5 km/h 4.8 km/h 78 % 0 mm
05:11 17.5 °C 13.6 °C 1016.1 hPa SW 0.2 km/h 3.2 km/h 78 % 0 mm
05:16 17.4 °C 13.5 °C 1015.8 hPa Calm     78 % 0 mm
05:21 17.3 °C 13.7 °C 1015.8 hPa SW 0.2 km/h 1.9 km/h 79 % 0 mm
05:26 17.3 °C 13.6 °C 1015.8 hPa Calm   1.6 km/h 79 % 0 mm
05:31 17.2 °C 13.6 °C 1016.1 hPa SW 0.2 km/h 1.9 km/h 79 % 0 mm
05:36 17.2 °C 13.5 °C 1016.1 hPa Calm     79 % 0 mm
05:41 17.1 °C 13.4 °C 1016.1 hPa SW 0.2 km/h 1.9 km/h 79 % 0 mm
05:46 17.1 °C 13.6 °C 1016.1 hPa Calm     80 % 0 mm
05:51 17.1 °C 13.6 °C 1016.1 hPa SW 0.2 km/h 1.6 km/h 80 % 0 mm
05:56 17 °C 13.5 °C 1016.1 hPa Calm   1.9 km/h 80 % 0 mm
06:01 16.9 °C 13.6 °C 1016.1 hPa SSE 0.2 km/h 1.9 km/h 81 % 0 mm
06:06 16.8 °C 13.6 °C 1016.1 hPa SSE 1 km/h 3.7 km/h 81 % 0 mm
06:11 16.8 °C 13.5 °C 1016.1 hPa SSE 1.1 km/h 5.6 km/h 81 % 0 mm
06:16 16.7 °C 13.6 °C 1016.1 hPa WSW 0.6 km/h 3.7 km/h 82 % 0 mm
06:21 16.7 °C 13.6 °C 1016.5 hPa SW 1 km/h 3.2 km/h 82 % 0 mm
06:26 16.7 °C 13.6 °C 1016.1 hPa Calm   1.9 km/h 82 % 0 mm
06:31 16.8 °C 13.9 °C 1016.5 hPa Calm     83 % 0 mm
06:36 16.8 °C 13.9 °C 1016.5 hPa Calm   1.9 km/h 83 % 0 mm
06:42 16.9 °C 14.2 °C 1016.5 hPa Calm     84 % 0 mm
06:47 17.1 °C 14.5 °C 1016.5 hPa Calm     85 % 0 mm
06:52 17.2 °C 14.7 °C 1016.5 hPa Calm     85 % 0 mm
06:57 17.4 °C 14.8 °C 1016.5 hPa Calm     85 % 0 mm
07:02 17.6 °C 14.9 °C 1016.5 hPa Calm     84 % 0 mm
07:07 17.8 °C 15.3 °C 1016.5 hPa Calm     85 % 0 mm
07:12 18.1 °C 15.4 °C 1016.5 hPa Calm     84 % 0 mm
07:17 18.4 °C 15.9 °C 1016.5 hPa Calm   1.9 km/h 85 % 0 mm
07:22 18.8 °C 16.2 °C 1016.5 hPa Calm   1.9 km/h 85 % 0 mm
07:27 19.2 °C 16.4 °C 1016.5 hPa South 0.2 km/h 1.9 km/h 84 % 0 mm
07:32 19.5 °C 16.6 °C 1016.5 hPa South 0.2 km/h 3.7 km/h 83 % 0 mm
07:37 19.9 °C 16.9 °C 1016.5 hPa Calm     83 % 0 mm
07:42 20.1 °C 17.1 °C 1016.5 hPa Calm     83 % 0 mm
07:44 20.2 °C 17.1 °C 1016.5 hPa Calm   1.9 km/h 82 % 0 mm
07:49 20.3 °C 17.2 °C 1016.5 hPa Calm   1.9 km/h 82 % 0 mm
07:54 20.5 °C 17.1 °C 1016.5 hPa Calm     81 % 0 mm
07:59 20.6 °C 17.2 °C 1016.5 hPa Calm     81 % 0 mm
08:04 20.7 °C 17.1 °C 1016.5 hPa West 3.9 km/h 7.4 km/h 80 % 0 mm
08:09 20.7 °C 17.1 °C 1016.5 hPa Calm   3.7 km/h 80 % 0 mm
08:14 20.7 °C 17.2 °C 1016.8 hPa West 0.6 km/h 3.7 km/h 80 % 0 mm
08:19 20.7 °C 17.3 °C 1016.5 hPa Calm     81 % 0 mm
08:24 20.8 °C 17.2 °C 1016.5 hPa West 0.5 km/h 5.6 km/h 80 % 0 mm
08:29 20.8 °C 17.4 °C 1016.5 hPa WNW 2.9 km/h 3.7 km/h 81 % 0 mm
08:34 20.9 °C 17.5 °C 1016.5 hPa WNW 1.1 km/h 3.7 km/h 81 % 0 mm
08:39 21 °C 17.8 °C 1016.5 hPa WNW 1.3 km/h 1.9 km/h 82 % 0 mm
08:44 21.1 °C 17.7 °C 1016.5 hPa WNW 2.4 km/h 4.8 km/h 81 % 0 mm
08:49 21.2 °C 17.8 °C 1016.5 hPa Calm     81 % 0 mm
08:54 21.3 °C 17.9 °C 1016.5 hPa Calm     81 % 0 mm
08:59 21.4 °C 17.7 °C 1016.5 hPa WNW 1.4 km/h 5.6 km/h 79 % 0 mm
09:04 21.6 °C 17.6 °C 1016.5 hPa WNW 1.3 km/h 1.9 km/h 78 % 0 mm
09:09 21.7 °C 17.7 °C 1016.5 hPa ESE 0.2 km/h 1.9 km/h 78 % 0 mm
09:15 21.8 °C 17.6 °C 1016.5 hPa NE 1.8 km/h 5.6 km/h 77 % 0 mm
09:20 21.9 °C 17.5 °C 1016.5 hPa WSW 2.4 km/h 2.4 km/h 76 % 0 mm
09:25 22.1 °C 17.4 °C 1016.5 hPa WSW 0.2 km/h 1.9 km/h 75 % 0 mm
09:30 22.2 °C 18 °C 1016.5 hPa North 0.3 km/h 1.9 km/h 77 % 0 mm
09:35 22.3 °C 18.1 °C 1016.5 hPa WNW 1.4 km/h 5.6 km/h 77 % 0 mm
09:40 22.4 °C 18 °C 1016.5 hPa Calm     76 % 0 mm
09:45 22.5 °C 17.8 °C 1016.8 hPa WNW 0.6 km/h 3.2 km/h 75 % 0 mm
09:50 22.6 °C 18.2 °C 1016.5 hPa WNW 1.1 km/h 5.6 km/h 76 % 0 mm
09:55 22.7 °C 17.8 °C 1016.8 hPa NW 0.2 km/h 5.6 km/h 74 % 0 mm
10:00 22.9 °C 18.7 °C 1016.8 hPa NW 1 km/h 3.7 km/h 77 % 0 mm
10:05 23.3 °C 18.9 °C 1016.8 hPa NW 1.6 km/h 5.6 km/h 76 % 0 mm
10:10 23.8 °C 18.9 °C 1016.8 hPa NW 1 km/h 3.7 km/h 74 % 0 mm
10:15 24.4 °C 18.6 °C 1016.8 hPa Calm   1.9 km/h 70 % 0 mm
10:20 25.2 °C 18.9 °C 1016.5 hPa NNW 0.6 km/h 1.6 km/h 68 % 0 mm
10:25 25.9 °C 18.8 °C 1016.8 hPa NNW 1.3 km/h 3.7 km/h 65 % 0 mm
10:30 26.4 °C 17.2 °C 1016.8 hPa NNW 0.3 km/h 5.6 km/h 57 % 0 mm
10:35 26.8 °C 17.3 °C 1016.8 hPa NW 1.4 km/h 3.7 km/h 56 % 0 mm
10:40 27.2 °C 17.7 °C 1016.5 hPa Calm   1.9 km/h 56 % 0 mm
10:45 27.8 °C 17.6 °C 1016.8 hPa NNW 0.5 km/h 3.7 km/h 54 % 0 mm
10:50 28.3 °C 17.8 °C 1016.8 hPa North 1.6 km/h 3.7 km/h 53 % 0 mm
10:55 28.7 °C 17.9 °C 1016.8 hPa West 0.2 km/h 3.7 km/h 52 % 0 mm
11:00 29.1 °C 18.2 °C 1016.8 hPa NNW 1.6 km/h 5.6 km/h 52 % 0 mm
11:06 29.3 °C 17.5 °C 1016.8 hPa NNW 3.2 km/h 8 km/h 49 % 0 mm
11:11 29.6 °C 18.4 °C 1016.8 hPa ESE 2.1 km/h 3.7 km/h 51 % 0 mm
11:16 29.8 °C 17.3 °C 1016.8 hPa North 3.2 km/h 8 km/h 47 % 0 mm
11:21 29.9 °C 17.4 °C 1016.5 hPa North 1.6 km/h 4.8 km/h 47 % 0 mm
11:26 30.2 °C 17.3 °C 1016.8 hPa North 3.2 km/h 6.4 km/h 46 % 0 mm
11:31 30.4 °C 17.4 °C 1016.8 hPa Calm   4.8 km/h 46 % 0 mm
11:36 30.5 °C 17.6 °C 1016.8 hPa NNW 1.6 km/h 4.8 km/h 46 % 0 mm
11:41 30.6 °C 17.3 °C 1016.8 hPa North 1.6 km/h 4.8 km/h 45 % 0 mm
11:46 30.7 °C 17.7 °C 1016.5 hPa NNE 1.6 km/h 6.4 km/h 46 % 0 mm
11:51 30.8 °C 17.8 °C 1016.5 hPa Calm   4.8 km/h 46 % 0 mm
11:55 30.8 °C 17.1 °C 1016.5 hPa NE 2.4 km/h 3.7 km/h 44 % 0 mm
12:01 30.7 °C 17 °C 1016.8 hPa ENE 3.1 km/h 5.6 km/h 44 % 0 mm
12:06 30.7 °C 17.7 °C 1016.8 hPa NE 1.8 km/h 5.6 km/h 46 % 0 mm
12:11 30.8 °C 18.2 °C 1016.5 hPa Calm   3.7 km/h 47 % 0 mm
12:16 30.9 °C 17.2 °C 1016.5 hPa NNW 2.4 km/h 6.4 km/h 44 % 0 mm
12:21 31 °C 17.7 °C 1016.5 hPa WNW 2.7 km/h 6.4 km/h 45 % 0 mm
12:26 31.2 °C 17.8 °C 1016.5 hPa NW 1.9 km/h 4.8 km/h 45 % 0 mm
12:31 31.2 °C 18.2 °C 1016.1 hPa North 3.9 km/h 5.6 km/h 46 % 0 mm
12:36 31.3 °C 18 °C 1016.1 hPa ENE 2.7 km/h 6.4 km/h 45 % 0 mm
12:41 31.2 °C 18.5 °C 1016.1 hPa NE 3.2 km/h 5.6 km/h 47 % 0 mm
12:46 31.3 °C 17.6 °C 1016.1 hPa NNE 0.5 km/h 3.7 km/h 44 % 0 mm
12:51 31.4 °C 18.8 °C 1016.1 hPa NW 0.5 km/h 5.6 km/h 47 % 0 mm
12:56 31.6 °C 16.7 °C 1016.1 hPa WNW 3.4 km/h 5.6 km/h 41 % 0 mm
13:01 31.6 °C 17.5 °C 1016.1 hPa NW 0.2 km/h 3.7 km/h 43 % 0 mm
13:06 31.6 °C 18.2 °C 1016.1 hPa NNE 2.7 km/h 5.6 km/h 45 % 0 mm
13:11 31.7 °C 17.9 °C 1016.1 hPa NNE 3.1 km/h 5.6 km/h 44 % 0 mm
13:16 31.8 °C 18 °C 1016.1 hPa NNE 4.2 km/h 8 km/h 44 % 0 mm
13:21 31.8 °C 17.7 °C 1016.1 hPa NNW 1.8 km/h 5.6 km/h 43 % 0 mm
13:26 31.9 °C 18.1 °C 1015.8 hPa NNE 3.2 km/h 4.8 km/h 44 % 0 mm
13:32 32 °C 18.9 °C 1015.8 hPa NNW 0.8 km/h 4.8 km/h 46 % 0 mm
13:37 32.1 °C 18.3 °C 1015.8 hPa North 2.4 km/h 5.6 km/h 44 % 0 mm
13:42 32.2 °C 18.4 °C 1015.8 hPa North 3.2 km/h 6.4 km/h 44 % 0 mm
13:47 32.3 °C 18.5 °C 1015.8 hPa North 3.7 km/h 5.6 km/h 44 % 0 mm
13:52 32.4 °C 18.6 °C 1015.5 hPa NNE 3.1 km/h 5.6 km/h 44 % 0 mm
13:57 32.6 °C 18 °C 1015.5 hPa WNW 4.7 km/h 5.6 km/h 42 % 0 mm
14:02 32.7 °C 18.1 °C 1015.5 hPa WNW 2.6 km/h 5.6 km/h 42 % 0 mm
14:07 32.7 °C 17.7 °C 1015.5 hPa NNW 1 km/h 5.6 km/h 41 % 0 mm
14:12 32.7 °C 17.3 °C 1015.5 hPa NW 2.3 km/h 5.6 km/h 40 % 0 mm
14:17 32.7 °C 17.7 °C 1015.1 hPa WNW 2.1 km/h 4.8 km/h 41 % 0 mm
14:22 32.6 °C 17.2 °C 1015.1 hPa WSW 0.2 km/h 1.9 km/h 40 % 0 mm
14:27 32.6 °C 18.7 °C 1015.1 hPa NNW 3.5 km/h 6.4 km/h 44 % 0 mm
14:32 32.6 °C 17.6 °C 1015.1 hPa NNE 2.1 km/h 5.6 km/h 41 % 0 mm
14:37 32.5 °C 17.9 °C 1015.1 hPa NNE 1.6 km/h 5.6 km/h 42 % 0 mm
14:42 32.4 °C 17.5 °C 1015.1 hPa NNE 3.9 km/h 5.6 km/h 41 % 0 mm
14:47 32.4 °C 18.2 °C 1015.1 hPa North 2.3 km/h 4.8 km/h 43 % 0 mm
14:53 32.4 °C 18.3 °C 1015.1 hPa NNE 1.3 km/h 3.7 km/h 43 % 0 mm
14:58 32.5 °C 18.3 °C 1015.1 hPa North 0.5 km/h 3.2 km/h 43 % 0 mm
15:03 32.6 °C 18.4 °C 1015.1 hPa NNW 2.1 km/h 5.6 km/h 43 % 0 mm
15:08 32.6 °C 19.1 °C 1014.8 hPa WNW 0.2 km/h 3.2 km/h 45 % 0 mm
15:13 32.7 °C 18.4 °C 1014.8 hPa West 0.3 km/h 1.9 km/h 43 % 0 mm
15:18 32.8 °C 17.8 °C 1014.8 hPa WSW 3.1 km/h 5.6 km/h 41 % 0 mm
15:23 32.8 °C 18.6 °C 1014.4 hPa South 0.8 km/h 1.9 km/h 43 % 0 mm
15:28 32.8 °C 18.2 °C 1014.4 hPa South 2.7 km/h 5.6 km/h 42 % 0 mm
15:33 32.9 °C 17.9 °C 1014.4 hPa NE 0.3 km/h 1.9 km/h 41 % 0 mm
15:38 32.9 °C 18.3 °C 1014.4 hPa West 1.8 km/h 3.7 km/h 42 % 0 mm
15:43 33.1 °C 18.1 °C 1014.4 hPa West 4.8 km/h 5.6 km/h 41 % 0 mm
15:48 33.1 °C 18.5 °C 1014.4 hPa NNE 3.5 km/h 5.6 km/h 42 % 0 mm
15:53 33 °C 18.8 °C 1014.4 hPa NW 3.1 km/h 3.7 km/h 43 % 0 mm
15:58 32.9 °C 18.3 °C 1014.1 hPa NE 1.4 km/h 5.6 km/h 42 % 0 mm
16:03 32.9 °C 18.7 °C 1014.4 hPa NNE 1.9 km/h 5.6 km/h 43 % 0 mm
16:04 32.9 °C 19.1 °C 1014.1 hPa NNE 1.3 km/h 3.7 km/h 44 % 0 mm
16:09 33 °C 19.5 °C 1014.4 hPa Calm     45 % 0 mm
16:14 32.9 °C 18.7 °C 1014.4 hPa North 0.2 km/h 1.9 km/h 43 % 0 mm
16:19 32.8 °C 18.6 °C 1014.4 hPa NNE 1.1 km/h 3.7 km/h 43 % 0 mm
16:24 32.7 °C 19.2 °C 1014.4 hPa NNE 1.1 km/h 3.7 km/h 45 % 0 mm
16:29 32.7 °C 18.8 °C 1014.1 hPa NNE 0.8 km/h 3.7 km/h 44 % 0 mm
16:34 32.6 °C 18 °C 1014.1 hPa NE 1 km/h 3.7 km/h 42 % 0 mm
16:39 32.5 °C 18.3 °C 1014.1 hPa NNE 1.1 km/h 5.6 km/h 43 % 0 mm
16:44 32.4 °C 18.6 °C 1014.1 hPa Calm     44 % 0 mm
16:49 32.4 °C 18.3 °C 1014.1 hPa Calm     43 % 0 mm
16:54 32.3 °C 18.5 °C 1014.1 hPa Calm   1.9 km/h 44 % 0 mm
16:59 32.3 °C 18.4 °C 1014.1 hPa NNE 1.1 km/h 1.9 km/h 44 % 0 mm
17:04 32.2 °C 19.1 °C 1014.1 hPa Calm   1.9 km/h 46 % 0 mm
17:09 32.2 °C 18.7 °C 1014.1 hPa North 1.4 km/h 5.6 km/h 45 % 0 mm
17:14 32.1 °C 19.1 °C 1014.1 hPa North 1.6 km/h 4.8 km/h 46 % 0 mm
17:19 32 °C 18.9 °C 1014.4 hPa North 1.1 km/h 5.6 km/h 46 % 0 mm
17:24 31.8 °C 18.7 °C 1014.4 hPa ESE 1.8 km/h 5.6 km/h 46 % 0 mm
17:29 31.5 °C 18.8 °C 1014.1 hPa Calm   3.7 km/h 47 % 0 mm
17:34 31.3 °C 18.7 °C 1014.1 hPa SE 0.5 km/h   47 % 0 mm
17:40 31.2 °C 18.5 °C 1014.1 hPa SE 3.1 km/h 13 km/h 47 % 0 mm
17:45 30.8 °C 18.9 °C 1014.1 hPa Calm   5.6 km/h 49 % 0 mm
17:50 30.6 °C 19 °C 1014.1 hPa SSE 2.3 km/h 5.6 km/h 50 % 0 mm
17:55 30.3 °C 18.4 °C 1014.1 hPa South 1 km/h 5.6 km/h 49 % 0 mm
18:00 29.9 °C 18.1 °C 1014.4 hPa SE 5 km/h 13 km/h 49 % 0 mm
18:05 29.6 °C 18.1 °C 1014.4 hPa SSE 0.5 km/h 3.7 km/h 50 % 0 mm
18:10 29.3 °C 18.1 °C 1014.4 hPa SE 0.2 km/h 5.6 km/h 51 % 0 mm
18:15 29 °C 18.2 °C 1014.4 hPa SE 2.6 km/h 5.6 km/h 52 % 0 mm
18:20 28.8 °C 18.6 °C 1014.4 hPa South 2.3 km/h 5.6 km/h 54 % 0 mm
18:25 28.7 °C 18.5 °C 1014.4 hPa SSE 1.6 km/h 3.7 km/h 54 % 0 mm
18:30 28.6 °C 18.6 °C 1014.4 hPa SE 1.4 km/h 3.7 km/h 55 % 0 mm
18:35 28.4 °C 18.8 °C 1014.4 hPa SE 0.2 km/h 1.9 km/h 56 % 0 mm
18:40 28.3 °C 18.7 °C 1014.4 hPa SSE 1.8 km/h 7.4 km/h 56 % 0 mm
18:45 28.2 °C 18.8 °C 1014.4 hPa Calm   1.9 km/h 57 % 0 mm
18:50 28.2 °C 18.8 °C 1014.4 hPa SSE 0.5 km/h 3.7 km/h 57 % 0 mm
18:55 28 °C 18.7 °C 1014.4 hPa SSE 0.5 km/h 1.9 km/h 57 % 0 mm
19:00 27.8 °C 18.6 °C 1014.4 hPa SE 1.3 km/h 5.6 km/h 57 % 0 mm
19:05 27.7 °C 18.4 °C 1014.4 hPa SE 0.5 km/h 1.9 km/h 57 % 0 mm
19:10 27.7 °C 18.4 °C 1014.4 hPa SE 0.2 km/h 1.9 km/h 57 % 0 mm
19:15 27.4 °C 18.2 °C 1014.4 hPa SSE 0.3 km/h 1.9 km/h 57 % 0 mm
19:20 27.2 °C 18.2 °C 1014.4 hPa SSE 0.8 km/h 3.7 km/h 58 % 0 mm
19:25 27.1 °C 18.3 °C 1014.4 hPa SE 0.3 km/h 3.7 km/h 59 % 0 mm
19:30 26.9 °C 18.5 °C 1014.4 hPa SE 0.3 km/h 5.6 km/h 60 % 0 mm
19:35 26.8 °C 18.4 °C 1014.4 hPa SE 0.2 km/h 3.2 km/h 60 % 0 mm
19:41 26.6 °C 18.4 °C 1014.4 hPa SSE 1.6 km/h 6.4 km/h 61 % 0 mm
19:46 26.3 °C 18.2 °C 1014.4 hPa SSW 0.2 km/h 1.9 km/h 61 % 0 mm
19:51 26.2 °C 18.6 °C 1014.8 hPa Calm   1.6 km/h 63 % 0 mm
19:56 25.9 °C 18.6 °C 1014.4 hPa Calm   3.2 km/h 64 % 0 mm
20:01 25.7 °C 18.6 °C 1014.8 hPa SSW 1.9 km/h 5.6 km/h 65 % 0 mm
20:06 25.5 °C 18.4 °C 1014.8 hPa Calm   8 km/h 65 % 0 mm
20:11 25.3 °C 18.8 °C 1014.8 hPa SSE 0.5 km/h 3.7 km/h 67 % 0 mm
20:16 25.2 °C 18.8 °C 1014.8 hPa SSE 0.8 km/h 3.7 km/h 68 % 0 mm
20:21 25 °C 18.7 °C 1014.8 hPa SE 0.5 km/h 1.9 km/h 68 % 0 mm
20:26 24.8 °C 18.5 °C 1014.8 hPa SE 1.4 km/h 7.4 km/h 68 % 0 mm
20:31 24.7 °C 18.4 °C 1014.8 hPa SE 1.6 km/h 7.4 km/h 68 % 0 mm
20:36 24.6 °C 18.3 °C 1014.8 hPa SSE 0.5 km/h 3.7 km/h 68 % 0 mm
20:41 24.4 °C 18.2 °C 1014.8 hPa ESE 0.5 km/h 5.6 km/h 68 % 0 mm
20:46 24.3 °C 18.2 °C 1015.1 hPa SE 0.5 km/h 5.6 km/h 69 % 0 mm
20:51 24.2 °C 18.1 °C 1015.1 hPa SSE 0.8 km/h 3.7 km/h 69 % 0 mm
20:56 24.1 °C 18.2 °C 1015.1 hPa SE 0.3 km/h 1.9 km/h 70 % 0 mm
21:01 24 °C 18.2 °C 1015.1 hPa South 0.8 km/h 3.7 km/h 70 % 0 mm
21:06 23.9 °C 18.1 °C 1015.1 hPa SE 0.6 km/h 3.7 km/h 70 % 0 mm
21:11 23.8 °C 18.3 °C 1015.1 hPa South 1.8 km/h 5.6 km/h 71 % 0 mm
21:16 23.8 °C 18.2 °C 1015.1 hPa Calm   3.7 km/h 71 % 0 mm
21:21 23.7 °C 18.2 °C 1015.1 hPa SSW 2.4 km/h 5.6 km/h 71 % 0 mm
21:26 23.6 °C 18.1 °C 1015.1 hPa Calm   1.9 km/h 71 % 0 mm
21:31 23.6 °C 18 °C 1015.5 hPa SW 0.3 km/h 3.7 km/h 71 % 0 mm
21:36 23.4 °C 17.9 °C 1015.5 hPa SW 1.1 km/h 5.6 km/h 71 % 0 mm
21:38 23.4 °C 17.9 °C 1015.5 hPa West 1.3 km/h 3.7 km/h 71 % 0 mm
21:43 23.3 °C 17.6 °C 1015.5 hPa Calm   1.9 km/h 70 % 0 mm
21:48 23.3 °C 17.5 °C 1015.5 hPa Calm   5.6 km/h 70 % 0 mm
21:53 23.2 °C 17.4 °C 1015.1 hPa WSW 0.5 km/h 1.9 km/h 70 % 0 mm
21:58 23.1 °C 17.3 °C 1015.5 hPa SW 1.4 km/h 5.6 km/h 70 % 0 mm
22:03 23.1 °C 17.3 °C 1015.1 hPa SW 2.6 km/h 3.2 km/h 70 % 0 mm
22:08 23 °C 17.2 °C 1015.5 hPa SW 2.9 km/h 4.8 km/h 70 % 0 mm
22:14 22.9 °C 17.2 °C 1015.1 hPa WSW 1.8 km/h 3.2 km/h 70 % 0 mm
22:19 22.9 °C 17.1 °C 1015.1 hPa SSW 1.9 km/h 3.7 km/h 70 % 0 mm
22:24 22.9 °C 17.1 °C 1015.1 hPa SW 1.9 km/h 3.7 km/h 70 % 0 mm
22:29 22.8 °C 17.1 °C 1015.1 hPa Calm     70 % 0 mm
22:34 22.8 °C 17.3 °C 1015.1 hPa SW 0.3 km/h 1.6 km/h 71 % 0 mm
22:39 22.8 °C 17.3 °C 1015.1 hPa Calm   3.7 km/h 71 % 0 mm
22:44 22.9 °C 17.3 °C 1015.1 hPa SW 1.1 km/h 1.9 km/h 71 % 0 mm
22:49 22.9 °C 17.6 °C 1015.1 hPa Calm     72 % 0 mm
22:54 22.9 °C 17.6 °C 1014.8 hPa WSW 0.5 km/h 3.2 km/h 72 % 0 mm
22:59 22.9 °C 17.3 °C 1014.8 hPa Calm   1.9 km/h 71 % 0 mm
23:04 22.8 °C 17.3 °C 1014.8 hPa WSW 0.2 km/h 5.6 km/h 71 % 0 mm
23:09 22.8 °C 17.5 °C 1014.8 hPa Calm   3.7 km/h 72 % 0 mm
23:14 22.8 °C 17.5 °C 1014.8 hPa WSW 1.6 km/h 3.7 km/h 72 % 0 mm
23:19 22.8 °C 17.4 °C 1014.8 hPa Calm   1.9 km/h 72 % 0 mm
23:24 22.8 °C 17.7 °C 1014.4 hPa NW 0.2 km/h 5.6 km/h 73 % 0 mm
23:29 22.7 °C 17.6 °C 1014.8 hPa South 0.3 km/h 7.4 km/h 73 % 0 mm
23:35 22.7 °C 17.6 °C 1014.8 hPa SW 0.5 km/h 5.6 km/h 73 % 0 mm
23:40 22.6 °C 17.5 °C 1014.4 hPa Calm   1.9 km/h 73 % 0 mm
23:45 22.6 °C 17.3 °C 1014.8 hPa Calm   1.9 km/h 72 % 0 mm
23:50 22.6 °C 17.3 °C 1014.8 hPa Calm   1.9 km/h 72 % 0 mm
23:55 22.5 °C 17.2 °C 1014.8 hPa Calm   1.9 km/h 72 % 0 mm
Crab Meadow Weather
Compliments of Weather Underground - 3 mb

Script developed by  Jim McMurry - jmcmurry@mwt.net Adapted for the template by  Wim van der Kuil - Leuven-Template.eu

Clouds: Mostly Cloudy or Considerable Cloudiness indicate about 75 percent cloud coverage.